Theta_e
336 336 334 334 334 333 331 327 327 326 322 320 319 320 322 323 324 325 326 326 327 329 330 331 328 326 330 331 331 330 331 331 328 329 330 330 331 329 329 328 327 324 320 322 323 324 326 326 325 324 321 314 314 317 319 322 322 322 324 323 324 325 325 326 326 321 317 317 316 316 315 312 310 306 303 303 302 301 300 298 298 296 299 307 313
336 336 336 335 335 333 331 328 328 328 326 323 321 321 322 323 323 325 326 326 327 328 328 331 331 328 327 328 330 330 330 330 329 330 330 330 330 329 329 329 327 325 323 323 324 324 325 326 324 323 323 317 313 315 318 320 320 322 323 323 324 325 325 326 326 321 317 317 316 315 314 312 309 305 303 303 302 301 299 297 297 297 298 304 310
337 336 336 336 335 333 332 330 330 330 328 326 325 326 327 327 325 325 327 328 328 329 329 329 332 331 328 327 328 329 330 329 330 330 330 330 330 330 330 329 328 326 326 325 325 325 325 327 325 322 325 323 319 318 318 317 319 322 323 322 324 325 325 326 326 321 318 317 316 316 314 311 308 304 303 302 301 300 298 297 297 297 298 302 308
338 337 336 336 336 334 333 332 331 331 330 329 328 329 331 332 330 329 328 330 331 331 330 329 331 331 330 329 327 329 330 329 329 330 330 330 330 331 330 329 328 326 326 326 325 325 325 328 327 323 325 325 323 321 319 318 320 321 322 322 324 326 325 326 326 321 318 317 316 316 314 311 307 303 302 302 301 300 298 297 296 296 299 301 304
337 336 336 335 335 335 335 334 333 333 331 332 331 330 331 332 332 332 331 331 332 333 332 331 331 331 330 330 329 329 331 330 330 329 330 330 330 331 331 330 329 327 326 327 326 325 325 327 328 325 326 326 325 324 321 320 321 321 322 322 324 326 325 326 326 322 318 317 317 316 314 311 306 303 302 302 301 299 297 297 296 296 299 302 302
337 336 336 335 335 335 335 335 334 334 333 333 333 331 330 331 331 332 332 332 332 333 332 330 330 330 329 331 331 330 331 331 330 330 330 330 330 330 330 331 330 328 327 327 326 325 324 326 328 326 326 326 325 325 324 322 322 322 322 322 323 324 325 326 327 324 319 317 317 316 315 311 306 303 302 302 301 298 297 296 296 296 297 301 304
335 336 336 336 335 335 335 335 335 335 334 333 333 333 331 330 331 331 332 332 332 333 331 328 328 330 329 330 331 330 331 331 331 330 330 330 330 330 330 331 331 330 329 328 327 326 325 325 326 326 326 326 324 324 325 323 324 322 321 323 323 323 325 326 327 325 322 318 317 317 315 311 305 303 302 301 300 298 297 296 296 296 295 298 301
331 334 335 335 335 335 335 336 336 336 335 334 334 335 334 333 332 332 332 332 332 332 330 327 328 329 329 329 330 331 331 330 331 331 331 331 330 330 330 331 331 331 330 329 328 326 325 324 325 325 325 326 324 324 324 323 325 324 321 322 323 323 324 326 327 326 323 319 317 317 316 312 306 303 302 301 300 298 297 296 296 296 295 295 297
331 334 335 335 335 335 335 336 336 336 335 336 335 335 335 334 332 331 331 332 332 332 330 327 329 329 329 329 329 330 330 330 330 330 331 331 331 331 331 331 331 331 331 330 329 327 326 325 325 324 323 324 324 324 323 321 325 326 321 321 323 323 324 326 326 326 324 321 318 317 317 313 306 303 302 301 300 298 297 296 296 296 295 295 296
331 332 333 334 335 335 335 335 335 335 335 335 336 336 334 333 331 331 331 331 331 332 331 329 329 330 329 329 329 329 329 329 329 329 331 331 331 331 331 331 331 331 331 331 330 328 327 326 326 324 323 323 324 324 322 320 323 325 323 321 321 321 324 325 325 326 325 322 319 317 317 314 307 303 302 301 300 298 297 296 296 295 295 295 296
329 330 330 330 332 334 335 333 331 333 335 334 335 334 332 332 332 333 332 331 331 331 332 331 329 329 330 330 330 329 328 328 328 328 328 329 330 331 331 331 331 331 331 331 330 329 328 327 327 326 324 323 324 324 323 322 321 322 323 323 322 322 323 324 326 327 325 324 321 318 317 315 308 304 302 301 300 299 297 296 296 295 295 295 296
328 328 328 327 326 327 329 325 321 326 332 333 334 335 334 333 334 333 333 333 332 331 332 333 331 329 330 330 330 330 329 327 327 327 327 327 328 330 330 331 331 331 331 331 331 330 328 328 327 327 326 324 323 324 324 323 321 320 322 323 322 324 325 323 326 326 324 325 324 320 317 316 310 304 303 302 301 299 297 296 296 295 295 295 295
327 327 327 327 325 325 325 321 319 322 327 329 330 332 334 336 335 334 333 332 332 331 331 333 333 331 332 331 330 330 329 328 327 326 327 327 327 328 329 330 331 331 331 331 330 330 329 328 328 327 327 325 324 324 324 323 322 321 322 324 323 324 325 324 326 327 324 324 325 322 318 316 311 305 303 302 301 300 297 296 296 295 295 295 294
320 321 322 323 324 325 325 324 325 326 329 329 327 328 330 333 334 334 333 333 333 332 332 332 331 332 332 331 331 330 329 328 327 326 325 326 327 327 328 329 330 330 330 331 330 330 329 328 328 327 327 326 326 325 324 324 324 322 321 324 325 324 324 323 326 328 326 325 325 323 318 316 313 306 303 302 301 300 298 296 296 296 295 294 294
317 319 320 320 322 324 325 325 326 327 329 329 329 329 329 329 330 330 331 332 334 333 334 333 331 332 332 333 334 332 330 328 327 326 325 325 325 325 326 327 328 329 329 330 330 330 330 329 328 328 327 327 326 326 326 325 325 324 323 323 325 325 324 322 325 330 329 326 326 324 319 316 314 308 304 303 301 300 299 297 296 296 295 294 294
316 319 320 321 321 323 324 324 325 325 326 327 328 328 329 329 329 329 329 329 331 330 332 334 332 332 332 333 333 331 333 331 326 326 326 325 325 323 324 326 327 328 328 329 330 330 330 329 328 328 327 327 327 326 326 326 325 326 325 323 323 325 325 322 323 329 331 328 326 324 320 317 315 310 305 303 302 301 299 297 296 296 295 294 294
316 317 318 320 320 321 322 323 324 324 324 324 325 325 326 327 328 330 330 330 330 329 330 332 332 331 331 333 332 333 337 333 327 328 327 325 326 324 323 326 327 327 328 328 330 330 330 329 328 328 327 327 327 327 327 327 326 326 326 324 322 323 325 322 320 325 331 329 327 326 321 318 316 311 306 304 302 301 300 297 297 296 295 294 293
316 316 317 318 319 320 320 321 323 324 324 323 323 324 324 324 325 327 329 330 331 331 331 330 330 330 330 331 331 334 336 332 332 334 331 327 327 326 326 326 326 327 327 327 329 330 330 329 328 328 328 327 327 327 327 327 327 327 326 326 324 322 323 323 319 321 329 330 328 327 324 319 317 313 308 305 303 302 301 298 297 296 295 294 293
315 316 316 318 319 319 319 319 321 322 322 323 322 322 322 322 322 323 324 326 329 331 331 329 330 331 330 329 329 330 331 331 333 336 335 334 330 328 329 328 327 327 326 327 327 329 329 328 328 327 327 327 327 327 327 327 327 327 327 326 326 324 323 323 319 317 325 330 329 328 325 321 319 315 310 306 304 302 301 299 297 296 295 294 294
316 317 316 317 318 319 319 319 319 320 320 321 322 321 321 321 321 322 321 322 325 327 329 329 329 329 330 330 330 331 330 329 330 331 334 337 333 330 330 328 328 327 327 328 327 329 329 327 327 327 327 327 327 328 327 328 328 327 328 327 327 326 324 324 322 316 319 327 330 328 326 324 321 318 312 307 305 303 302 300 298 296 296 295 295
317 316 316 316 316 316 316 316 316 317 317 317 318 318 319 320 320 320 321 320 321 323 325 326 328 328 329 329 330 331 331 329 328 328 329 332 334 333 330 327 328 328 328 328 328 328 329 328 327 327 327 327 327 328 327 328 328 327 328 328 327 327 325 324 324 320 316 322 329 328 327 325 323 321 316 309 305 304 303 301 299 297 297 297 297
316 317 316 314 312 311 310 309 309 310 310 310 311 313 317 318 318 318 319 319 319 320 321 321 323 326 328 329 330 330 331 330 329 329 328 328 331 332 328 327 329 328 327 329 328 328 328 327 327 327 327 327 327 327 327 327 328 327 327 328 328 327 327 325 325 324 319 318 324 328 327 326 323 322 319 312 306 305 304 302 300 298 298 298 297
315 315 314 312 309 307 305 305 305 305 305 305 307 310 314 316 316 316 316 317 318 318 319 319 320 321 323 326 329 330 330 330 329 329 329 328 328 329 327 327 327 327 327 328 328 328 328 327 327 326 327 327 326 326 327 327 327 327 327 327 328 327 327 327 326 326 323 317 318 325 328 327 324 323 321 316 309 305 305 303 302 301 300 299 299
313 312 312 310 308 307 306 305 305 305 305 305 305 307 309 311 312 313 314 314 315 316 316 318 318 319 319 320 323 327 329 330 329 329 328 328 328 328 327 327 327 327 326 327 326 327 327 327 327 326 326 326 326 326 326 327 327 327 327 326 327 328 327 328 327 327 326 320 316 322 328 327 326 324 322 319 313 306 305 304 304 305 304 302 304
314 312 312 312 310 309 308 306 305 306 306 305 305 306 307 308 309 310 312 313 314 314 315 316 316 317 318 318 319 322 325 327 328 328 327 327 327 327 327 327 327 326 326 326 326 326 326 327 326 327 327 326 326 326 326 326 327 327 327 327 327 328 327 327 328 328 328 323 316 320 327 327 326 325 322 321 317 310 306 305 306 308 308 306 307
314 313 313 315 314 312 309 307 307 307 305 304 304 305 306 308 309 310 311 313 313 314 314 315 315 315 316 317 317 319 321 323 326 328 327 327 327 326 326 326 326 326 326 326 327 327 327 326 326 326 326 327 327 328 327 326 327 326 326 327 326 327 328 327 328 328 328 326 318 319 326 328 326 326 323 321 319 315 308 306 309 311 310 308 308
314 314 314 315 314 312 311 310 310 308 306 304 304 305 306 307 309 309 310 311 312 313 314 314 314 314 314 315 316 317 318 319 322 325 326 327 327 327 327 327 327 327 327 327 327 328 328 327 327 327 326 327 327 328 328 327 327 326 326 327 326 327 327 327 328 328 329 328 321 319 326 328 326 326 324 321 320 317 310 307 312 313 311 309 308
313 314 313 313 312 312 312 311 311 309 307 306 307 308 307 307 308 308 309 309 310 311 311 312 312 312 313 313 314 315 316 317 318 320 322 325 327 327 327 327 328 329 328 328 327 327 328 328 329 328 327 327 327 326 328 327 327 326 325 326 326 327 327 327 328 328 328 328 323 321 325 327 326 325 325 322 320 317 311 309 313 313 311 310 308
313 312 312 312 312 312 312 312 311 309 307 307 308 309 309 308 308 308 308 308 309 309 309 310 310 310 311 311 312 313 314 315 316 317 319 322 324 326 327 326 326 327 328 329 328 326 326 327 328 328 327 327 327 327 327 327 328 327 326 326 326 327 327 327 328 328 328 328 325 322 323 325 326 325 324 323 321 318 312 311 313 314 312 310 308
312 312 312 312 312 312 312 311 309 308 308 309 308 307 306 306 307 308 308 308 308 308 308 308 308 308 309 309 310 311 312 312 313 315 316 317 320 323 326 326 325 325 326 327 327 326 325 326 326 327 327 326 326 326 326 327 327 327 326 326 326 326 326 326 327 328 328 328 326 323 322 322 324 325 324 323 322 319 314 312 314 314 313 311 308
312 312 312 311 312 312 311 309 308 308 309 308 307 306 305 305 305 306 307 307 307 307 307 307 307 307 307 308 308 309 310 310 311 312 313 314 315 318 321 325 326 326 324 324 326 327 326 326 326 326 326 326 326 326 326 326 327 327 326 326 326 326 326 325 325 327 328 328 326 323 322 322 323 325 324 322 322 319 315 313 314 314 313 311 309
312 311 311 312 311 310 309 308 308 308 308 307 306 305 305 305 305 305 305 306 306 306 306 306 306 306 306 306 307 307 307 308 308 309 310 311 312 314 316 319 323 326 326 325 325 326 324 325 326 326 326 326 326 325 325 325 326 328 327 326 326 326 326 324 324 327 328 327 325 322 322 322 323 324 324 322 321 320 317 314 314 313 313 312 309
310 311 311 311 309 308 307 308 308 307 307 306 306 305 305 305 305 305 305 305 305 305 305 305 305 304 305 305 306 306 306 306 307 307 308 309 310 311 312 315 319 322 325 326 325 324 324 325 326 326 326 326 326 326 326 326 326 327 327 327 328 327 326 324 324 326 326 325 324 321 321 323 323 324 324 322 321 320 318 315 314 314 313 312 310
310 310 310 308 307 307 307 308 307 307 307 306 306 306 305 305 305 305 305 305 305 305 305 305 305 304 304 305 305 306 306 306 306 306 306 307 308 309 310 312 315 318 321 324 325 325 326 326 326 326 326 326 326 326 326 326 326 327 327 327 328 327 326 324 324 325 324 323 322 320 320 323 324 325 324 322 321 320 319 316 315 314 313 312 311
310 309 307 307 307 308 308 308 307 306 306 305 305 305 305 305 304 304 304 304 304 304 304 304 305 305 305 305 305 305 305 306 306 306 306 306 306 307 308 309 311 313 317 320 323 324 325 326 326 326 326 326 327 326 326 326 326 326 326 327 327 326 326 325 324 324 324 323 321 320 320 322 324 325 324 321 321 320 319 317 316 315 314 312 311
308 308 308 308 308 308 308 307 307 306 305 305 304 304 304 304 303 303 303 303 303 303 303 303 304 304 304 305 305 305 305 305 305 305 305 305 306 306 307 308 309 311 313 316 319 322 324 325 325 326 326 326 327 327 326 327 326 326 326 326 326 326 326 325 325 325 325 324 322 319 320 322 324 325 323 321 320 320 319 317 316 316 315 313 311
308 308 308 308 308 308 307 307 306 305 304 304 304 303 303 303 303 303 303 303 302 302 302 303 303 303 304 304 304 304 304 305 305 305 305 305 305 305 305 306 307 309 311 313 316 319 322 323 323 324 325 326 326 326 326 326 326 326 326 326 326 326 326 326 326 326 326 325 322 320 320 323 325 325 324 322 321 321 319 318 316 316 315 313 311
309 309 309 309 308 308 307 306 305 304 304 303 303 303 303 303 303 302 302 302 302 302 302 302 302 303 303 303 303 303 304 304 304 304 305 305 305 305 305 305 306 307 309 311 313 315 318 321 322 322 323 324 325 325 326 326 326 326 325 325 326 326 326 326 325 325 325 324 322 320 322 325 326 326 324 323 322 321 320 319 317 316 316 313 311
310 309 309 309 308 307 306 305 304 304 303 303 303 302 302 302 302 301 302 302 302 302 302 302 302 302 303 303 303 303 303 303 303 303 304 304 305 305 305 305 305 306 307 308 309 309 312 316 320 322 323 323 323 324 325 325 325 325 324 323 323 323 324 324 324 324 323 322 321 321 322 325 326 325 324 323 323 322 320 319 317 317 316 314 312
310 310 309 308 307 306 305 304 303 303 303 302 302 302 302 301 301 301 301 300 300 300 301 301 301 302 302 302 302 302 303 303 303 303 304 304 305 305 305 305 305 305 306 306 307 307 308 311 315 319 322 323 322 322 323 323 321 321 323 322 321 321 322 323 323 323 322 321 321 321 322 324 323 323 322 322 322 322 321 319 318 317 316 315 312
310 309 308 307 307 305 304 303 303 303 302 302 302 301 301 301 300 300 299 299 299 299 299 299 299 299 300 300 301 301 302 302 302 302 302 303 303 303 303 304 304 305 305 305 305 306 307 309 311 314 318 322 322 321 321 321 321 321 321 320 319 320 320 320 320 321 321 321 321 320 321 322 322 320 320 320 320 319 319 319 318 317 316 315 313
309 308 307 307 305 304 303 303 303 302 302 302 301 301 300 300 299 299 299 299 299 298 298 298 298 298 298 298 299 299 300 300 300 300 301 301 301 301 301 302 303 303 304 305 305 305 306 307 308 310 313 317 320 320 319 320 322 321 319 318 318 317 316 314 315 316 318 318 318 318 318 320 319 318 318 319 318 317 317 317 318 317 316 315 312
308 307 307 306 304 304 303 302 302 301 301 300 300 299 299 299 299 299 299 299 299 298 298 298 298 298 297 297 297 297 298 298 299 299 300 300 300 300 301 301 301 302 303 303 304 305 305 306 307 308 310 312 315 318 319 319 320 319 318 317 317 315 312 311 312 312 315 316 316 315 315 317 316 315 316 317 317 316 318 318 317 316 315 315 310
307 307 306 305 304 303 302 301 301 300 300 299 299 299 299 299 299 299 299 299 299 298 298 298 297 297 297 297 297 296 297 297 297 297 298 298 299 299 300 300 300 301 301 302 302 303 304 305 306 307 308 309 311 314 318 319 319 318 317 316 315 314 313 312 312 313 315 316 314 312 313 314 313 313 314 316 315 314 315 316 316 315 315 313 307
306 306 304 303 303 302 301 300 300 299 299 298 298 298 298 298 298 298 298 298 298 297 297 297 296 296 296 296 296 296 296 296 296 296 296 297 297 298 298 299 300 300 300 300 301 302 302 304 305 306 307 308 310 311 314 317 318 317 315 313 313 313 313 312 313 314 314 313 312 311 310 311 312 311 311 313 313 312 312 313 314 313 312 310 304
305 304 303 302 301 300 300 299 298 298 297 297 297 297 297 297 297 297 297 296 296 296 295 295 295 295 295 295 295 295 295 295 295 295 296 296 296 296 297 298 298 299 300 300 301 301 302 303 305 306 307 308 309 310 310 313 316 317 315 313 313 312 311 311 311 312 311 310 312 311 309 309 310 309 309 310 311 311 311 311 311 309 307 305 300
304 302 301 301 300 299 298 297 297 296 295 295 295 295 295 295 295 295 295 295 295 294 294 294 294 294 294 294 294 294 294 294 294 295 295 295 295 296 296 296 297 297 298 299 300 301 301 303 304 305 306 306 308 308 309 311 313 315 316 315 313 311 310 309 309 309 309 308 310 310 309 309 308 307 307 307 307 307 307 307 307 305 303 301 298
302 301 300 299 299 298 297 296 294 294 293 293 294 294 294 294 294 294 294 294 294 294 294 293 293 293 293 294 294 294 294 294 294 294 294 294 295 295 296 296 296 296 297 297 298 299 300 301 302 302 303 304 305 306 307 308 311 314 316 314 312 310 308 307 307 307 307 307 307 309 310 309 307 305 305 304 303 303 303 303 303 302 300 298 296
301 300 299 298 298 297 296 294 293 293 293 293 293 294 294 294 294 293 293 293 293 293 293 293 293 293 293 293 293 293 293 293 293 294 294 294 294 295 296 296 296 296 297 297 297 298 298 299 300 300 300 301 303 304 305 306 308 313 314 312 309 308 307 306 306 305 306 307 307 307 308 308 306 305 303 302 301 301 300 299 299 299 298 296 294
300 299 298 298 297 296 294 293 293 293 293 293 293 293 294 294 293 293 293 293 293 292 292 292 292 292 292 292 293 293 293 293 293 293 293 294 294 295 295 296 296 297 297 297 297 298 298 298 299 299 300 300 302 303 306 307 309 311 312 312 311 309 307 307 307 305 304 304 305 306 306 306 305 303 301 299 298 298 298 297 298 297 296 295 294
298 297 298 298 296 294 293 293 292 292 292 292 293 293 293 293 293 293 292 292 292 292 292 292 292 292 292 292 292 292 292 292 292 293 293 293 294 294 295 295 296 297 297 297 298 298 298 298 299 299 300 300 302 304 306 309 310 311 312 313 313 310 308 307 307 306 303 303 304 305 305 304 303 301 299 298 297 296 296 296 296 296 296 295 294
Wind_Speed
10 10 12 13 14 15 15 13 12 10 10 10 10 11 12 13 14 13 13 13 13 13 12 9 12 14 12 9 9 8 6 7 11 12 10 8 7 6 5 4 4 5 6 7 7 7 8 8 7 7 5 5 7 6 6 7 6 8 7 7 9 8 7 6 6 7 6 6 5 6 7 7 6 6 6 7 8 9 9 10 10 10 11 12 14
10 10 13 14 15 16 16 15 14 13 11 11 11 11 12 13 13 13 13 14 14 14 14 14 14 14 14 13 11 9 7 8 10 12 11 9 8 7 7 6 5 5 5 7 8 7 8 9 9 7 5 5 5 5 6 7 8 9 7 8 10 9 8 7 7 7 6 5 4 5 6 6 5 5 6 7 7 8 9 10 10 10 10 11 13
10 11 13 15 16 17 17 16 15 15 14 14 13 13 13 12 14 14 14 14 15 15 15 17 18 15 14 15 14 12 9 10 10 11 10 9 9 9 9 8 8 7 6 7 8 8 9 10 10 8 6 6 5 5 5 6 8 8 8 9 11 10 10 8 8 7 6 5 4 4 5 5 4 5 5 6 7 8 9 9 9 9 10 10 12
11 12 13 15 17 17 17 16 17 16 15 15 15 16 15 13 13 15 15 14 15 16 17 19 22 17 15 15 15 14 13 13 12 12 10 10 11 11 11 10 10 9 9 8 8 9 10 12 11 8 8 8 6 6 5 5 7 8 9 10 11 11 10 9 8 8 6 5 4 3 4 4 4 4 5 6 7 8 8 9 9 9 9 10 11
10 12 13 15 16 16 16 17 18 18 17 17 17 19 18 15 14 15 16 15 16 16 16 21 24 19 17 16 16 16 15 15 15 14 12 11 11 11 12 12 12 11 11 11 10 10 10 12 13 10 9 9 8 8 7 6 6 8 9 10 11 11 10 10 9 8 7 6 4 3 3 3 3 4 5 6 6 7 8 8 8 8 9 10 11
9 10 12 14 14 15 15 16 17 19 20 20 19 19 19 18 17 17 17 17 18 16 16 22 26 20 18 18 17 17 17 17 16 16 15 13 12 12 12 13 13 13 13 13 12 11 10 13 15 13 11 11 10 10 10 8 8 9 10 10 11 11 10 10 10 10 7 6 5 3 2 2 3 4 5 5 6 7 7 7 8 8 8 10 11
7 9 11 13 14 14 13 12 13 17 20 21 21 20 19 19 18 18 19 17 18 16 15 21 24 20 19 19 19 18 17 18 18 18 16 15 14 13 13 14 14 14 14 14 14 13 12 13 15 15 14 13 11 10 11 10 9 10 10 12 12 11 11 10 11 10 8 7 6 3 2 2 3 4 5 5 6 6 7 7 7 8 8 9 10
6 7 8 10 12 12 12 10 10 13 18 20 21 21 20 18 15 15 17 17 16 12 12 19 19 16 18 18 19 19 18 18 18 19 18 16 16 15 15 15 14 15 16 15 14 14 13 14 15 16 16 15 13 11 11 10 11 11 11 13 13 12 12 11 12 11 9 9 7 5 3 2 3 4 5 5 6 6 6 6 7 7 7 8 9
7 6 6 7 9 11 12 11 8 9 13 17 18 19 19 16 12 12 15 17 15 11 11 17 18 16 16 16 16 17 19 18 17 18 19 18 17 17 16 16 16 16 17 17 16 15 15 15 15 15 16 17 15 13 13 11 12 13 12 14 15 13 12 11 12 12 10 10 9 7 4 3 4 4 5 5 5 6 6 6 6 7 7 7 8
7 7 6 6 6 8 11 11 9 8 10 13 16 17 16 13 12 13 16 18 17 14 12 14 18 18 17 17 15 15 18 19 18 17 19 20 19 18 18 17 17 17 18 18 17 16 16 16 16 16 17 18 18 16 15 13 13 14 13 15 16 15 13 11 13 13 11 10 10 9 6 4 5 5 5 5 5 6 6 5 6 6 7 7 7
6 5 5 5 5 5 8 9 7 7 7 9 12 13 14 14 16 17 18 19 18 17 11 10 15 18 18 18 17 16 17 18 19 18 19 21 21 20 19 18 18 18 19 19 19 18 17 17 17 17 17 18 19 19 17 15 14 15 14 15 17 16 14 12 13 14 12 11 11 11 8 6 6 6 6 6 6 6 6 5 6 6 6 7 6
5 4 4 4 4 4 6 5 2 2 4 7 10 11 12 15 18 19 18 18 19 20 14 9 11 15 16 16 17 17 18 19 20 20 21 21 21 21 21 20 19 19 20 21 21 21 19 19 18 18 17 18 20 20 19 17 15 15 15 17 17 18 16 13 15 15 13 12 12 12 10 7 7 7 7 6 7 6 6 6 6 6 6 6 6
5 4 3 3 3 3 4 4 1 1 1 4 7 9 11 13 15 16 15 17 19 20 18 13 10 11 11 12 14 17 20 21 21 21 22 22 22 22 22 21 21 20 21 21 22 23 22 21 20 20 18 18 20 21 21 20 17 16 16 18 18 19 18 16 16 17 16 13 13 13 12 9 8 8 8 7 7 7 7 6 6 6 6 6 6
4 3 3 2 2 2 1 0 1 3 3 2 3 6 9 12 15 14 13 14 16 17 17 14 11 10 8 7 8 12 18 23 24 23 23 24 24 23 23 23 23 22 21 22 23 25 25 24 23 22 21 20 20 21 22 22 20 17 17 20 20 19 19 19 19 19 18 15 14 14 14 12 10 10 9 9 8 8 7 7 7 7 7 6 6
3 3 3 2 2 3 3 3 5 5 5 3 3 3 5 8 11 12 13 13 14 16 17 14 13 10 5 3 4 4 8 16 22 25 25 25 25 25 24 24 25 24 23 24 25 26 26 26 26 25 23 22 21 21 22 23 22 19 18 20 22 21 21 21 20 20 20 18 15 16 16 14 12 11 11 10 9 9 8 8 8 8 7 7 7
5 5 5 3 2 2 1 2 4 5 5 5 4 4 5 6 7 8 10 13 15 16 17 15 15 12 4 1 1 1 3 7 14 23 27 27 26 26 26 25 25 25 24 25 26 27 27 28 28 28 26 24 23 23 23 23 22 21 19 19 22 24 24 23 21 22 22 20 18 17 17 16 14 13 12 11 11 10 10 9 9 8 8 8 7
6 5 4 4 2 1 1 1 1 3 4 5 5 5 5 6 7 7 7 10 13 15 17 15 16 17 10 3 1 1 3 3 4 13 22 26 28 29 28 27 26 26 27 27 27 27 27 28 28 29 29 27 25 25 24 24 23 23 22 19 20 24 26 25 23 23 23 22 20 18 18 17 16 15 13 13 12 11 11 10 9 9 8 8 8
6 6 4 3 2 1 2 2 2 1 1 3 4 4 4 6 7 7 7 7 10 13 15 15 15 17 17 13 8 4 2 1 2 4 10 17 24 27 29 30 29 28 28 29 29 29 28 27 28 30 31 29 28 27 26 25 24 24 24 22 21 22 25 26 25 25 25 24 22 20 19 19 18 17 15 14 13 13 12 11 10 9 9 9 8
5 6 5 3 3 2 1 1 2 2 2 1 1 3 3 5 6 7 7 7 7 10 12 14 15 15 16 19 18 13 9 5 2 1 3 7 14 19 23 28 30 30 30 30 30 31 30 28 28 30 32 31 29 28 28 27 26 26 26 25 23 22 23 24 25 25 26 25 24 22 20 20 19 19 17 16 15 14 13 12 11 10 10 9 8
6 6 5 4 3 2 2 2 2 2 2 2 3 4 5 4 5 6 7 8 8 8 11 12 12 14 14 17 19 19 19 17 13 8 2 2 6 9 14 18 22 27 30 31 31 31 31 30 29 30 32 32 30 29 29 29 28 28 28 27 26 25 24 24 24 25 27 26 25 24 22 21 20 19 19 17 16 15 14 13 12 11 10 9 8
6 5 5 4 3 2 2 2 2 2 3 3 4 5 6 6 7 7 7 8 8 8 10 11 12 14 14 16 17 17 19 20 21 17 9 6 4 4 8 9 12 17 22 26 30 31 31 30 29 31 32 32 31 30 30 30 30 30 29 28 28 27 26 26 25 25 27 27 26 25 23 21 20 19 19 19 18 17 16 14 13 12 11 9 7
5 5 4 3 2 1 1 2 2 2 2 3 4 4 6 7 8 9 9 10 10 10 10 11 12 13 14 15 16 15 14 12 14 16 13 10 7 5 8 8 7 11 14 16 20 26 30 31 31 31 33 33 31 30 31 32 32 31 29 29 29 28 27 27 26 25 27 30 29 27 25 22 21 20 20 20 19 18 17 16 15 13 11 10 8
7 6 5 4 4 3 3 3 3 3 4 5 5 6 7 9 10 11 11 11 12 12 12 12 12 13 13 14 15 15 14 12 13 15 12 9 7 6 10 12 11 14 18 16 16 17 21 26 30 32 33 32 31 31 32 33 33 32 30 29 29 29 28 27 27 26 27 30 31 29 27 24 22 21 20 20 21 19 18 17 16 14 12 11 10
8 7 6 6 5 3 1 1 3 4 6 7 8 9 11 12 13 14 14 13 13 13 14 14 14 15 15 15 16 17 18 17 17 17 15 15 11 6 10 13 10 14 21 23 23 21 20 21 24 28 30 31 32 32 33 34 35 34 32 31 29 29 28 26 27 28 29 31 32 31 29 26 24 23 21 21 21 21 19 19 17 16 14 12 11
10 9 8 7 5 3 2 3 4 6 8 10 11 12 13 14 15 16 16 15 14 14 14 14 15 15 16 16 17 17 18 19 19 18 18 19 16 10 13 14 9 12 18 20 22 24 24 24 24 24 26 28 30 32 34 35 36 36 34 32 31 30 29 27 27 29 30 31 33 33 32 28 25 24 23 21 21 22 21 20 19 18 16 14 13
12 10 10 9 8 6 5 5 6 8 10 12 12 12 12 14 15 16 16 16 16 15 15 15 15 15 15 16 17 17 17 18 19 20 19 18 17 13 12 11 10 13 15 18 20 20 22 27 28 27 26 27 28 31 34 36 37 37 36 34 33 31 30 28 27 28 31 32 34 35 34 30 27 25 24 23 22 23 22 21 20 19 18 15 15
13 12 12 12 10 8 7 7 7 9 10 11 11 11 12 14 15 15 15 15 16 17 17 17 17 17 17 17 17 17 18 18 19 19 20 20 19 17 14 8 8 9 9 13 17 18 23 27 26 27 27 27 27 28 30 34 36 37 37 35 34 33 31 30 29 28 30 33 35 37 36 33 31 28 26 25 24 25 24 23 21 21 20 17 17
14 13 12 11 10 10 9 9 8 9 10 9 9 9 11 13 15 15 15 15 16 17 18 19 19 19 19 19 18 18 18 18 19 19 20 21 21 21 19 12 8 6 5 8 9 13 22 24 23 26 26 25 25 25 27 32 35 36 38 37 36 35 33 31 31 29 30 33 35 38 39 36 33 31 29 27 26 27 26 24 24 23 22 20 19
15 14 13 12 11 11 10 10 9 9 9 9 9 9 11 13 14 16 17 17 17 17 17 18 19 20 20 20 20 20 19 18 18 17 18 20 21 22 23 20 14 8 5 6 6 9 17 20 21 24 24 23 22 22 25 30 33 35 37 38 37 36 33 31 31 31 31 33 35 38 40 39 36 34 32 29 28 28 28 26 26 25 24 23 21
16 14 13 12 12 11 10 10 9 9 9 9 9 11 13 14 15 16 17 18 19 19 18 18 19 20 21 22 21 22 21 20 19 18 17 18 20 21 23 24 21 16 10 8 8 12 17 18 20 22 20 20 19 20 24 28 32 34 36 37 37 36 34 31 31 32 32 33 36 39 41 41 39 36 34 31 29 30 29 28 28 27 27 25 23
17 15 14 13 12 11 10 10 10 9 9 10 11 12 13 15 15 16 17 18 19 20 20 20 20 20 21 23 23 24 24 23 22 21 20 20 19 20 21 23 23 22 20 14 8 13 19 18 20 23 20 20 20 20 23 25 29 33 34 35 36 35 34 31 30 32 33 34 36 39 42 42 40 38 36 32 31 31 30 29 30 29 28 27 24
16 15 14 13 12 11 10 10 10 10 11 12 12 12 12 13 13 14 15 16 17 19 20 21 22 22 23 24 25 25 25 25 25 24 23 22 21 20 20 22 23 23 25 20 9 13 25 25 23 26 25 23 23 22 23 26 29 34 34 34 34 33 33 32 29 31 33 33 35 39 42 43 40 39 37 35 32 32 31 31 31 31 30 28 26
15 14 14 12 11 10 9 10 10 11 12 11 11 12 12 13 13 13 14 14 15 17 19 21 22 22 23 25 26 26 25 25 26 25 25 24 23 23 22 21 23 23 24 23 14 13 25 28 26 30 30 26 25 24 25 26 28 31 33 33 34 33 33 32 30 31 33 33 34 39 43 43 41 40 39 36 35 34 33 32 33 32 31 29 27
14 14 12 10 9 9 10 10 11 10 10 10 10 11 12 12 12 12 12 13 15 16 18 19 21 21 23 25 26 27 25 24 25 25 25 24 24 24 24 22 22 24 23 24 21 15 19 25 25 28 29 25 25 26 26 26 27 28 29 31 33 34 35 34 32 32 33 33 34 39 43 44 42 41 40 37 36 37 36 34 34 34 32 30 28
14 12 10 8 8 9 10 10 9 8 8 8 9 10 11 12 13 14 15 15 17 18 19 19 20 21 21 23 25 25 25 24 26 25 24 24 23 23 24 23 23 24 24 24 23 19 20 24 24 25 26 25 26 27 27 28 29 29 30 32 34 36 36 35 34 34 34 33 35 39 43 44 42 41 40 38 37 39 38 36 35 35 33 31 29
12 11 9 8 8 9 9 8 7 7 7 8 9 11 13 15 17 18 19 19 19 20 20 21 20 20 21 22 24 24 24 24 26 27 25 24 23 22 23 24 23 24 24 25 25 23 22 23 22 23 26 27 27 27 28 28 29 30 31 32 33 35 35 34 34 35 35 34 36 40 44 44 43 42 41 39 39 40 40 38 37 36 34 32 31
11 9 9 9 9 8 8 7 6 7 8 9 11 13 15 16 17 18 19 19 20 20 20 21 20 20 20 22 23 23 23 24 25 26 25 24 24 23 24 24 23 24 24 24 24 23 23 24 24 24 24 26 26 27 27 28 29 29 29 30 32 32 33 34 35 35 35 35 37 41 45 45 44 43 43 41 41 42 42 41 40 38 35 33 32
10 9 9 9 9 8 8 7 7 8 9 11 12 14 15 16 16 17 17 18 19 20 20 20 21 21 21 22 23 23 23 23 23 25 25 25 25 25 24 24 24 23 24 23 22 22 22 23 25 25 23 24 25 26 27 29 30 29 28 28 29 31 33 34 34 34 34 35 38 43 46 47 47 46 44 43 42 42 44 43 41 39 37 34 33
10 10 10 9 9 8 7 8 9 10 11 13 14 15 16 17 17 18 18 18 18 19 19 19 20 21 21 22 23 23 23 23 24 25 26 26 25 24 24 24 24 23 24 25 25 24 23 22 23 23 22 23 25 26 27 28 29 28 28 27 27 29 31 31 33 34 34 35 38 44 48 48 48 48 47 45 43 43 44 45 43 41 38 36 34
11 11 10 10 10 8 9 10 11 11 12 13 15 16 17 19 19 19 20 20 20 20 20 20 20 21 21 22 23 24 24 24 24 24 25 25 24 25 25 25 25 26 26 26 25 23 21 21 21 22 21 21 22 23 23 23 23 25 29 30 27 28 31 32 32 33 33 34 38 43 46 47 47 48 47 46 45 45 46 46 44 41 39 37 35
12 11 11 10 9 9 11 11 11 11 12 14 15 17 19 20 20 21 23 24 25 25 24 23 23 23 23 23 24 24 25 26 26 27 28 28 28 29 29 28 27 27 27 26 25 23 20 19 20 21 21 18 19 20 19 21 25 28 30 29 26 26 29 30 30 32 33 34 37 40 44 47 47 47 46 47 47 47 47 45 44 41 39 38 36
12 11 11 10 10 11 11 10 10 11 13 15 17 19 20 21 22 23 24 26 26 27 27 27 27 26 26 25 25 25 26 27 28 29 31 31 31 32 33 32 30 30 28 27 26 24 21 19 19 20 19 17 20 20 20 24 29 29 26 26 26 24 23 22 24 29 33 33 35 38 41 44 45 44 45 46 46 45 44 43 42 41 40 39 37
11 11 10 10 10 10 10 9 10 12 14 16 18 19 21 21 23 24 26 27 28 28 29 29 28 28 28 27 27 26 26 26 27 28 29 29 30 30 31 32 32 32 32 29 27 25 22 21 21 22 20 20 23 22 18 22 27 27 26 28 28 25 22 19 16 21 31 36 35 34 36 40 41 40 42 45 45 45 46 46 44 43 41 40 38
10 10 10 9 8 8 7 8 11 13 15 17 19 20 21 22 23 24 25 27 27 28 29 29 28 28 28 28 29 28 28 28 27 28 29 29 30 30 31 32 33 34 34 33 32 30 26 24 23 24 23 23 25 25 21 21 23 26 27 26 26 27 27 25 21 21 31 38 35 30 32 37 38 38 41 45 45 45 46 46 45 43 42 41 38
9 9 8 7 5 5 7 10 13 14 16 18 19 20 21 22 23 24 24 25 27 28 29 29 29 29 29 30 30 29 29 28 28 28 29 30 31 31 32 33 33 34 35 35 36 36 34 31 28 29 28 26 26 27 25 23 23 25 26 25 27 30 30 28 26 24 26 32 35 30 27 32 37 37 39 42 43 43 43 43 43 42 42 41 37
8 7 5 4 4 7 10 12 13 15 17 20 21 22 23 23 24 24 25 26 27 28 29 29 30 30 30 30 30 30 29 28 28 28 29 30 32 33 33 33 34 34 34 34 34 35 36 35 32 32 31 29 30 31 29 27 27 26 26 27 30 32 30 24 20 18 17 24 34 29 21 26 35 36 38 40 40 42 42 42 42 42 41 39 36
7 5 4 5 7 9 10 12 15 19 22 24 25 25 26 25 25 26 27 28 29 30 30 29 29 30 30 29 30 30 30 29 29 28 29 31 32 34 35 35 36 37 37 36 33 32 32 33 32 31 31 29 29 30 29 29 32 31 30 31 32 30 27 21 17 17 15 18 28 27 18 22 32 35 36 38 36 37 40 40 41 41 39 37 35
6 5 5 6 8 9 11 14 18 22 25 27 28 28 28 28 27 28 29 30 30 30 30 30 29 29 29 29 29 30 31 31 29 29 29 31 33 34 35 36 37 39 40 39 36 35 35 35 35 35 34 33 31 30 29 29 31 34 32 30 28 26 23 19 17 18 18 18 25 29 20 18 26 31 31 30 31 32 34 37 38 38 37 34 32
5 5 6 7 9 11 13 15 19 23 25 27 28 28 29 29 28 28 29 30 30 30 31 30 30 29 29 29 30 30 31 31 30 29 29 29 32 33 34 36 36 37 39 37 35 35 36 37 39 40 39 38 36 34 33 31 30 33 32 28 27 27 24 17 13 18 23 23 26 30 24 17 22 28 26 23 26 29 29 32 34 33 32 32 30
5 7 9 10 11 11 12 14 19 23 26 28 28 29 29 28 28 29 29 30 30 30 31 31 30 30 30 30 29 30 32 32 31 31 30 30 32 33 33 34 34 36 36 33 31 33 32 33 36 38 38 38 35 33 33 32 30 32 35 33 31 31 27 20 17 19 21 24 28 30 25 19 20 24 22 17 18 25 28 28 29 30 30 29 29
9 11 12 12 10 9 10 15 20 23 27 29 28 29 29 29 29 29 29 30 29 30 30 31 31 30 30 30 30 30 32 32 32 31 31 31 32 34 34 34 33 34 33 31 30 31 29 29 32 34 33 33 32 31 32 30 28 28 37 41 37 35 31 26 24 17 10 17 30 33 27 23 23 25 24 15 9 15 24 26 26 28 28 28 29
Wind_Direction
199 191 185 186 190 191 187 184 188 188 179 179 186 188 185 183 189 197 203 209 215 220 221 200 168 164 170 173 174 182 207 210 193 193 200 206 210 210 206 209 222 232 231 226 225 215 202 205 210 212 230 231 219 210 180 179 177 163 165 159 151 147 135 140 157 153 141 126 108 82 68 65 63 61 63 66 66 66 67 70 72 73 75 77 77
200 189 186 191 191 190 191 190 193 195 191 192 197 205 204 199 201 208 214 221 228 232 237 225 194 178 179 181 177 177 203 210 194 200 211 214 217 219 219 221 222 226 229 223 225 228 214 208 218 225 233 246 235 215 197 195 182 165 172 178 164 155 145 151 171 166 152 141 120 85 72 67 69 67 71 75 73 73 72 72 75 74 77 80 79
205 198 192 195 194 192 196 199 201 200 198 199 203 214 218 217 218 223 228 236 244 249 250 230 202 186 184 185 184 179 193 205 197 201 213 222 226 226 224 223 220 222 224 225 226 229 224 213 222 239 229 232 238 222 217 208 190 176 187 190 170 159 152 158 182 180 166 158 134 90 76 73 77 75 78 81 77 79 78 75 77 76 79 83 84
205 203 197 197 198 198 201 204 208 208 206 204 206 216 223 226 231 237 239 246 255 257 257 231 203 192 192 189 188 188 195 204 203 203 212 225 228 227 229 227 221 221 222 227 227 226 228 214 219 243 226 221 231 225 232 220 203 192 195 191 170 162 159 163 188 190 178 171 150 105 81 83 86 87 86 85 83 84 83 81 80 80 81 85 89
205 207 202 201 201 202 204 208 213 215 213 211 211 215 222 226 235 246 246 254 259 261 263 232 207 199 199 195 194 197 202 207 210 208 212 223 225 225 231 232 224 220 221 225 229 229 231 216 219 237 223 222 227 218 228 230 220 204 196 195 176 168 166 169 192 197 184 181 165 125 95 98 101 102 97 92 91 91 88 86 83 83 85 87 89
201 206 204 202 203 203 204 208 213 217 217 216 217 218 223 227 233 245 249 257 256 263 268 230 211 207 205 202 201 204 207 209 215 216 216 219 221 224 226 230 227 222 222 222 227 232 232 222 225 236 228 230 234 219 220 221 225 213 201 203 186 174 175 174 194 204 194 189 182 157 122 121 121 116 109 102 100 98 93 91 88 88 91 92 93
194 202 204 204 207 209 208 209 209 213 217 219 222 222 223 227 235 245 249 252 248 259 259 220 208 209 209 210 209 209 212 211 216 222 223 221 220 222 220 224 228 227 225 221 224 228 229 227 229 237 233 232 239 228 219 215 220 218 207 209 198 183 184 181 196 211 208 201 194 183 159 146 146 127 118 113 108 105 99 95 94 93 94 97 99
171 183 199 206 212 214 212 212 209 211 214 216 221 222 223 226 236 246 247 245 242 251 238 209 201 202 203 209 211 211 216 216 218 222 226 226 225 225 220 220 227 230 229 225 225 224 224 229 231 237 234 231 235 230 225 220 219 221 215 212 206 194 190 189 202 215 214 206 202 199 187 171 166 141 128 124 117 112 106 102 100 99 99 99 99
151 156 179 201 212 215 209 203 202 210 216 215 215 219 222 224 231 240 242 241 240 240 229 212 206 205 207 211 213 212 216 218 220 223 227 230 230 229 225 224 227 230 230 228 228 224 221 226 230 236 237 234 231 227 234 236 220 223 225 215 209 202 198 197 206 216 212 207 209 209 199 187 179 156 140 135 127 120 115 112 109 108 105 101 99
143 143 154 173 187 202 203 196 193 200 214 216 214 220 223 224 231 236 236 237 237 235 234 226 216 214 217 220 220 218 218 218 219 222 227 231 234 233 232 230 229 229 230 229 229 227 223 223 226 232 235 236 233 230 238 242 226 225 228 219 211 206 205 204 210 217 214 209 212 214 208 200 189 167 154 149 141 133 126 123 120 116 112 106 102
157 156 160 166 163 179 193 189 187 194 206 210 212 222 225 224 227 229 230 232 234 234 240 245 228 222 223 222 222 226 228 223 218 220 225 230 236 237 236 233 232 232 233 233 232 230 226 224 225 228 232 233 234 235 238 239 234 231 226 221 217 211 212 212 212 218 219 210 209 216 216 210 198 177 167 161 154 146 139 137 133 127 121 115 109
149 163 189 204 212 222 220 211 173 170 217 212 208 219 222 222 225 227 229 232 234 231 233 250 232 218 219 219 220 228 236 234 225 222 225 228 232 238 239 236 235 236 238 238 236 233 230 228 227 229 234 233 234 236 238 238 239 236 226 222 221 218 218 216 215 221 226 216 207 215 222 216 206 185 175 174 165 158 151 149 146 138 131 124 117
146 151 170 202 219 234 251 255 258 84 296 252 231 231 228 227 231 230 229 234 238 233 232 248 242 211 208 221 226 230 235 236 232 230 230 229 227 233 239 240 238 239 242 242 239 236 233 232 230 232 235 235 234 236 237 238 240 240 231 224 222 221 219 215 217 220 223 220 208 214 224 220 213 194 182 182 174 168 164 161 156 148 140 132 125
165 161 162 177 168 131 108 25 94 115 90 7 290 259 248 242 242 237 230 237 244 241 237 241 247 231 211 224 241 239 236 233 234 237 239 236 229 228 234 240 242 242 243 244 242 240 238 236 233 233 236 236 236 236 236 236 238 240 235 227 221 223 222 216 220 221 216 217 211 213 223 223 216 202 189 187 181 176 173 169 164 156 148 141 134
163 130 130 140 119 107 96 79 74 87 87 51 11 328 295 272 263 254 243 244 246 245 240 230 237 239 206 207 240 238 241 236 234 238 240 241 237 233 233 236 241 244 245 244 244 243 242 240 237 236 237 237 237 237 237 238 239 241 239 231 223 224 227 220 223 226 215 211 212 211 219 223 219 209 196 192 189 183 180 176 170 164 155 149 143
162 134 123 127 113 105 110 84 70 70 68 59 43 15 352 335 313 290 266 257 254 252 247 236 236 235 203 185 213 153 249 242 236 238 239 242 243 239 237 236 237 241 244 246 246 246 245 243 242 241 240 239 240 239 239 241 242 242 239 234 226 224 229 225 224 231 221 210 212 213 215 221 221 214 203 196 194 188 185 181 175 171 163 154 148
169 165 142 133 121 139 213 237 50 57 55 54 48 32 9 357 345 328 301 275 269 267 263 255 246 238 225 211 106 152 250 224 230 245 240 240 242 241 239 238 237 237 241 245 247 247 246 245 246 245 243 242 243 241 241 242 242 242 237 232 227 224 229 230 227 234 229 213 211 213 212 218 221 218 209 201 198 193 189 185 181 178 170 161 153
172 187 179 161 148 150 217 231 234 251 22 41 42 46 30 14 7 350 332 306 288 283 281 282 275 257 242 237 234 239 269 181 167 260 251 243 243 243 242 241 240 239 239 242 244 245 247 248 249 248 244 243 244 242 243 243 242 242 239 232 226 224 229 233 230 232 233 220 210 207 207 213 218 220 215 206 203 199 193 189 186 184 177 169 159
137 157 159 161 163 165 207 227 226 250 271 300 359 20 20 14 13 7 1 346 315 292 293 302 298 282 263 254 252 251 261 265 230 269 278 248 243 244 246 244 241 241 241 242 242 244 246 249 251 250 245 243 244 244 245 245 243 243 242 236 230 226 228 233 232 229 233 229 214 204 204 206 211 220 219 212 207 203 197 193 190 188 184 179 170
125 134 145 165 187 204 231 242 244 262 271 274 296 322 334 334 339 348 354 0 352 318 304 308 301 293 288 278 271 265 262 260 258 263 269 256 257 250 250 248 244 243 243 243 243 243 245 247 249 248 245 243 243 245 247 247 246 244 244 240 233 230 227 231 233 228 229 233 222 209 206 202 203 214 219 216 211 206 201 196 194 193 190 186 182
145 141 149 170 195 218 247 262 269 284 283 289 294 299 311 314 317 323 326 335 344 337 323 315 304 299 296 291 286 280 272 263 256 253 244 243 266 261 254 256 253 249 245 244 243 243 244 247 249 248 244 243 244 247 249 249 248 247 246 244 237 232 230 229 233 230 227 231 230 219 212 205 200 205 213 217 216 210 204 200 197 197 195 192 192
175 166 162 168 165 146 85 65 43 5 342 328 316 303 304 306 308 311 314 314 315 322 327 324 319 311 300 290 283 277 274 266 253 246 239 239 247 256 261 261 261 261 256 250 249 247 245 246 247 246 243 243 245 249 251 250 249 249 250 249 242 235 232 230 232 234 228 228 233 227 216 210 205 203 207 215 218 214 207 204 201 200 199 199 199
191 189 188 187 169 143 110 83 50 15 357 344 332 321 312 306 306 305 308 311 309 310 312 314 319 319 314 302 288 277 267 260 255 248 239 235 244 258 260 260 263 265 264 264 265 262 255 249 245 242 240 242 247 251 253 252 250 251 252 252 247 239 234 232 233 234 229 226 231 229 219 213 210 207 206 211 218 217 211 207 205 202 203 204 201
190 191 193 190 180 162 122 47 5 350 337 328 317 309 305 302 303 305 308 311 312 312 311 313 314 314 318 316 308 296 280 271 268 259 247 240 240 248 257 258 263 264 264 266 269 269 265 260 253 246 242 243 248 252 254 254 252 252 252 252 249 242 236 236 235 234 230 226 227 228 224 216 210 211 209 208 215 219 215 210 207 205 205 207 202
195 196 198 197 198 214 271 310 326 329 325 322 316 310 306 304 303 303 305 307 310 313 314 316 316 314 315 316 316 312 299 291 284 273 262 249 238 239 255 255 252 262 266 266 268 269 267 265 263 258 254 251 251 252 252 253 253 253 253 252 249 243 237 238 238 235 231 226 224 227 226 219 211 212 212 208 211 218 217 212 208 206 207 208 202
203 205 205 205 210 225 257 281 294 306 314 318 320 320 319 315 310 305 302 302 302 305 310 313 312 312 316 318 317 314 310 307 296 283 273 258 241 234 249 254 252 260 266 263 261 264 266 266 265 263 262 259 256 254 252 252 254 254 253 252 249 244 240 239 239 237 231 226 223 224 224 221 216 213 211 209 211 217 219 215 210 209 210 210 204
206 208 206 206 216 234 253 264 274 294 309 317 318 321 322 319 316 310 305 301 297 296 302 308 310 310 313 316 316 312 308 310 307 296 283 270 257 248 249 253 255 256 262 266 261 255 257 262 264 262 260 258 255 254 254 253 253 254 253 250 247 245 241 240 241 238 232 227 222 221 222 221 218 215 212 213 213 217 220 217 213 213 214 213 210
201 202 204 210 227 242 251 256 269 289 304 309 307 306 310 312 313 310 307 304 301 299 299 302 307 310 310 311 312 311 308 310 312 310 301 289 278 268 261 256 260 262 256 264 266 260 257 255 256 256 253 251 253 254 256 255 253 252 250 247 246 246 243 240 241 239 232 228 223 220 220 220 216 213 215 219 220 220 221 218 216 217 218 216 214
199 201 208 216 229 239 246 255 268 284 292 294 296 296 298 301 302 303 303 302 302 302 302 302 303 306 308 308 309 308 309 312 313 315 315 306 294 283 273 265 263 265 266 265 257 260 262 254 249 253 252 250 251 253 255 256 254 251 248 245 245 246 245 242 242 240 233 229 224 219 220 220 216 213 215 221 225 224 222 219 218 220 221 220 219
202 204 209 215 225 234 242 255 268 278 280 280 288 294 298 300 299 298 297 297 297 298 300 302 303 305 305 304 305 304 305 309 310 310 312 314 309 297 284 273 261 252 255 271 265 257 261 258 250 252 254 254 256 258 258 258 256 251 246 245 244 245 248 246 244 242 235 230 225 221 220 219 217 214 214 220 227 227 224 221 220 221 223 223 224
202 204 209 216 222 229 240 256 267 271 273 278 285 291 296 298 299 299 297 295 295 296 297 299 301 303 304 301 301 300 301 304 306 306 306 310 314 311 301 287 269 254 248 253 267 261 258 259 258 258 260 262 264 265 263 261 257 250 245 244 244 246 249 248 246 244 237 231 227 222 220 219 216 215 215 219 226 227 226 224 222 223 225 226 227
203 206 210 215 220 232 247 257 263 269 276 281 286 291 294 296 296 298 298 296 295 296 298 299 299 300 301 301 300 298 299 302 302 303 304 304 307 309 309 302 289 272 254 244 246 265 262 262 264 264 266 268 268 266 265 264 258 250 246 244 245 248 249 247 246 243 237 232 228 223 220 218 217 216 216 217 223 227 228 227 225 225 226 228 229
205 208 212 218 230 246 254 258 265 273 277 281 289 293 294 295 295 293 292 293 293 295 297 298 300 302 302 302 302 301 302 303 302 301 301 300 302 303 304 306 302 293 271 252 241 259 266 264 262 265 267 267 267 265 262 260 255 250 247 247 247 248 248 246 243 240 235 232 230 225 220 218 217 216 215 217 222 226 228 228 227 227 227 228 230
208 213 220 232 247 257 259 264 271 273 278 287 293 292 291 293 294 292 292 295 297 298 297 298 300 302 302 300 300 301 303 303 302 302 302 300 300 300 301 303 302 301 293 273 256 252 264 264 260 262 264 261 260 262 259 255 254 252 250 249 248 247 247 244 241 238 235 233 231 226 221 219 218 216 215 217 222 226 227 227 228 228 228 229 230
214 221 231 246 257 260 262 265 268 272 282 291 290 290 294 300 302 301 302 303 302 301 299 299 300 300 298 296 295 299 302 302 301 301 302 302 301 299 298 299 300 300 302 295 278 265 265 268 261 256 258 256 253 256 257 256 255 253 251 250 248 246 243 241 239 239 237 234 230 225 221 220 219 216 215 219 223 226 226 227 228 228 229 230 230
218 226 239 252 255 256 258 260 266 279 290 298 302 305 308 310 310 309 309 309 307 306 303 302 301 298 295 292 293 295 297 298 299 299 300 301 302 301 297 297 298 297 300 304 298 284 273 273 269 258 253 251 249 252 254 253 251 249 248 245 243 242 241 241 241 240 238 235 229 224 221 221 220 217 217 219 223 225 227 228 229 228 228 229 230
220 229 239 245 245 245 248 254 268 286 300 307 310 312 312 312 312 311 311 311 309 307 305 303 301 296 293 291 292 294 294 293 295 296 298 298 299 299 298 295 295 296 297 301 305 299 284 276 276 271 259 249 246 248 248 246 245 244 241 239 238 239 240 241 241 238 235 232 227 222 220 221 220 219 219 221 223 224 226 227 227 227 227 228 229
222 228 231 232 235 236 241 256 278 293 302 306 306 307 308 308 311 312 311 311 309 304 301 299 298 294 291 290 291 292 291 290 291 294 295 296 296 295 295 295 294 295 295 296 302 308 300 286 279 276 268 255 244 239 240 243 241 236 232 232 233 234 234 235 234 233 232 228 223 219 218 219 220 219 219 221 223 225 226 226 226 226 226 226 227
223 226 228 230 232 237 253 279 296 301 303 304 305 307 307 307 310 311 312 311 309 305 299 296 295 293 290 288 288 288 287 286 287 289 290 292 293 292 292 294 295 293 292 293 296 300 303 300 290 280 273 265 251 239 238 239 237 232 229 227 226 226 227 229 229 230 229 225 221 218 217 218 219 219 219 221 224 225 225 225 225 225 225 226 226
226 229 233 235 239 255 284 299 302 300 298 300 303 306 307 308 307 307 307 307 306 303 300 296 294 292 290 289 287 286 285 284 285 285 286 287 289 290 290 291 293 291 290 292 293 292 294 296 296 291 283 272 260 248 238 229 223 226 229 227 225 223 222 224 227 229 228 224 219 217 216 216 217 217 217 218 221 223 223 223 222 223 224 225 226
227 231 235 240 258 286 302 301 294 289 291 296 303 307 308 307 306 306 305 304 303 302 299 296 294 291 289 287 285 284 284 283 283 283 282 283 284 286 287 287 288 288 288 288 287 288 288 286 288 293 290 283 271 256 234 219 220 228 231 227 226 227 223 220 223 227 227 224 219 217 216 216 216 215 214 216 217 218 218 218 219 221 223 224 226
226 231 240 256 284 298 296 286 282 287 296 302 307 308 308 307 306 305 303 301 301 299 297 295 294 292 291 288 286 284 283 283 283 282 281 281 281 281 281 281 281 281 283 284 282 280 281 279 278 282 285 287 281 262 232 224 230 231 228 223 223 223 215 213 221 225 223 220 216 216 215 216 217 215 214 216 217 216 216 217 219 221 223 224 226
230 238 256 278 291 288 280 280 291 302 308 310 312 312 311 310 308 304 301 299 297 296 294 293 292 292 291 290 289 287 285 284 283 283 283 282 281 279 278 277 275 274 275 277 278 277 274 273 271 271 270 273 281 279 258 242 236 230 227 224 219 211 202 205 217 222 221 218 213 212 214 216 217 216 215 217 216 216 217 218 220 222 223 223 224
236 253 271 281 278 272 279 298 311 315 315 314 315 315 314 312 309 305 300 297 295 294 293 292 291 291 291 290 289 287 285 284 282 282 282 282 281 280 278 276 274 272 270 270 272 273 272 272 270 267 264 263 269 276 274 263 248 236 232 228 218 210 210 213 214 218 222 217 209 207 213 215 216 216 217 219 217 215 216 217 218 219 221 222 223
244 262 266 263 262 281 307 318 318 316 316 316 316 316 314 312 310 305 299 296 294 292 292 291 290 290 289 289 289 287 285 284 283 282 282 281 281 280 279 277 274 272 269 267 267 268 268 269 267 264 263 261 261 264 266 270 264 244 229 225 221 218 218 220 222 226 225 212 203 204 211 215 215 214 217 220 219 217 217 217 217 219 220 222 223
241 245 237 247 284 309 316 319 318 319 320 320 318 316 315 313 310 304 298 295 293 291 291 290 288 288 288 287 286 285 285 284 283 283 283 282 281 280 278 276 274 272 270 267 265 265 265 266 265 265 264 261 261 262 262 265 264 250 232 226 225 221 221 225 231 239 235 212 202 202 207 215 216 214 216 220 219 218 218 218 218 219 220 221 221
223 221 234 276 298 311 319 325 328 329 327 324 321 319 317 315 312 306 300 297 295 292 290 289 287 287 286 285 284 284 284 284 284 283 283 282 281 280 277 274 273 271 269 266 263 262 262 263 265 268 270 269 267 268 267 262 258 256 250 240 231 224 221 225 232 239 241 221 206 203 207 217 215 214 217 220 219 219 220 218 218 220 221 220 218
210 231 266 288 303 319 330 336 336 332 329 326 323 320 317 314 311 307 303 299 296 293 290 289 288 286 284 282 283 283 283 283 283 283 283 282 279 277 274 273 272 271 268 266 264 262 261 262 264 267 270 271 271 273 275 269 260 256 251 239 228 220 215 218 225 227 229 224 211 207 211 220 217 215 218 221 220 220 222 221 220 221 220 218 215
223 257 279 294 312 324 332 336 334 331 330 329 325 320 316 312 309 307 305 300 296 293 290 290 287 284 283 282 282 282 282 281 281 281 281 279 275 273 272 272 271 270 268 267 267 265 262 261 263 265 268 269 270 272 274 273 266 255 239 222 215 212 207 207 215 219 222 223 214 208 211 220 220 214 214 219 221 221 223 225 223 222 221 217 213
257 277 283 288 302 318 329 334 334 331 330 329 325 319 314 311 308 307 305 301 297 294 292 291 288 286 284 282 281 279 279 279 279 279 278 276 272 269 269 270 269 267 266 267 268 267 263 262 263 265 268 269 269 270 271 270 268 254 234 222 217 211 206 209 212 212 219 222 216 208 208 217 220 210 203 204 217 222 224 227 226 224 221 216 214
272 272 270 275 294 317 330 334 337 336 332 328 325 319 314 311 308 307 305 302 297 295 294 292 290 287 285 283 281 279 278 278 277 277 276 273 270 267 265 266 265 264 266 267 266 264 264 263 263 264 268 268 265 266 268 269 270 255 236 230 225 215 210 214 211 200 202 220 216 208 205 211 213 203 193 185 199 223 224 225 227 225 220 215 214